1507950000.96,46429,10.06,74334.3,-1.87,-20.15,-20.43,0,*50
1507950002.24,46430,10.06,74334.5,-1.87,-20.19,-20.53,0,*55
1507950003.47,46431,10.06,74332.3,-1.87,-19.91,-20.29,0,*53
1507950004.75,46432,10.06,74328.3,-1.87,-20.19,-20.53,0,*57
1507950006.0,46433,10.06,74330.3,-1.85,-20.19,-20.49,0,*5F
1507950007.23,46434,10.06,74332.3,-1.85,-20.35,-20.63,0,*5E
1507950008.48,46435,10.06,74328.8,-1.87,-20.35,-20.69,0,*57
1507950009.76,46436,10.06,74328.5,-1.87,-20.15,-20.49,0,*54
1507950010.98,46437,10.06,74328.5,-1.87,-20.05,-20.29,0,*52
1507950012.21,46438,10.06,74328.0,-1.87,-19.99,-20.29,0,*52
1507950013.42,46439,10.06,74334.5,-1.85,-19.99,-20.43,0,*5D
1507950014.65,46440,10.06,74334.5,-1.89,-20.05,-20.49,0,*5A
1507950015.88,46441,10.06,74334.8,-1.85,-19.85,-20.25,0,*5F
1507950017.12,46442,10.06,74328.0,-1.89,-19.95,-20.35,0,*50
1507950018.35,46443,10.06,74330.3,-1.87,-19.99,-20.43,0,*52
1507950019.63,46444,10.06,74324.8,-1.87,-20.15,-20.49,0,*51
1507950020.88,46445,10.06,74334.3,-1.87,-20.19,-20.63,0,*54
1507950022.14,46446,10.06,74330.3,-1.87,-20.15,-20.43,0,*59
1507950023.37,46447,10.06,74330.3,-1.83,-20.09,-20.43,0,*51
1507950024.65,46448,10.06,74332.0,-1.87,-20.19,-20.53,0,*5A
1507950025.89,46449,10.06,74330.8,-1.87,-20.05,-20.35,0,*56
1507950027.11,46450,10.06,74330.5,-1.85,-19.99,-20.43,0,*52
1507950028.33,46451,10.06,74330.5,-1.85,-20.05,-20.49,0,*56
1507950029.62,46452,10.06,74328.8,-1.83,-20.15,-20.49,0,*52
1507950030.87,46453,10.06,74324.5,-1.85,-20.19,-20.53,0,*52
1507950032.1,46454,10.06,74328.3,-1.85,-20.05,-20.49,0,*53
1507950033.36,46455,10.06,74328.5,-1.85,-20.19,-20.53,0,*54
1507950034.64,46456,10.06,74326.5,-1.87,-20.19,-20.53,0,*55
1507950035.91,46457,10.06,74326.3,-1.87,-20.19,-20.53,0,*54
1507950037.16,46458,10.06,74326.8,-1.87,-20.05,-20.53,0,*56
1507950038.38,46459,10.06,74324.0,-1.85,-19.99,-20.43,0,*5B
1507950039.6,46460,10.06,74326.3,-1.85,-20.15,-20.63,0,*5D
1507950040.83,46461,10.06,74328.8,-1.85,-20.05,-20.53,0,*5E
1507950042.08,46462,10.06,74324.5,-1.87,-19.91,-20.35,0,*58
1507950043.29,46463,10.06,74326.0,-1.85,-19.91,-20.43,0,*5A
1507950044.55,46464,10.06,74324.5,-1.83,-19.85,-20.29,0,*52
1507950045.78,46465,10.06,74324.0,-1.85,-19.99,-20.35,0,*55
1507950047.02,46466,10.06,74322.5,-1.83,-19.95,-20.39,0,*50
1507950048.25,46467,10.06,74320.3,-1.85,-19.91,-20.35,0,*5F
1507950049.51,46468,10.06,74326.5,-1.85,-19.31,-19.81,0,*5F
1507950050.72,46469,10.06,74328.5,-1.85,-19.99,-20.43,0,*58
1507950052.01,46470,10.06,74322.8,-1.83,-19.57,-20.15,0,*57
1507950053.27,46471,10.06,74324.8,-1.83,-20.15,-20.59,0,*52
1507950054.54,46472,10.06,74332.8,-1.83,-19.95,-20.49,0,*52
1507950055.78,46473,10.06,74324.0,-1.83,-19.95,-20.39,0,*54
1507950057.01,46474,10.06,74326.5,-1.85,-20.05,-20.53,0,*5A
1507950058.25,46475,10.06,74330.3,-1.83,-19.95,-20.43,0,*5F
1507950059.51,46476,10.06,74326.5,-1.83,-19.85,-20.25,0,*5D
1507950060.75,46477,10.06,74324.5,-1.83,-19.95,-20.43,0,*5D
1507950061.98,46478,10.06,74328.5,-1.85,-20.05,-20.53,0,*56
1507950063.22,46479,10.06,74328.8,-1.83,-19.99,-20.43,0,*5F
1507950064.47,46480,10.06,74324.5,-1.85,-19.85,-20.35,0,*53
1507950065.73,46481,10.06,74326.8,-1.83,-19.85,-20.29,0,*59
1507950066.94,46482,10.06,74324.5,-1.81,-19.95,-20.43,0,*55
1507950068.18,46483,10.06,74324.8,-1.85,-19.99,-20.49,0,*56
1507950069.39,46484,10.06,74326.3,-1.81,-19.71,-20.25,0,*59
1507950070.61,46485,10.06,74322.8,-1.81,-19.81,-20.29,0,*5B
1507950071.85,46486,10.06,74322.8,-1.83,-19.99,-20.63,0,*5D
1507950073.09,46487,10.06,74326.0,-1.85,-19.99,-20.49,0,*52
1507950074.29,46488,10.06,74326.3,-1.85,-20.05,-20.43,0,*58
1507950075.53,46489,10.06,74324.3,-1.83,-20.09,-20.59,0,*58
1507950076.78,46490,10.06,74326.3,-1.85,-19.85,-20.35,0,*52
1507950078.0,46491,10.06,74326.5,-1.81,-19.81,-20.29,0,*5E
1507950079.24,46492,10.06,74324.3,-1.81,-19.65,-20.25,0,*5B
1507950080.49,46493,10.06,74324.3,-1.83,-19.85,-20.29,0,*5A
1507950081.76,46494,10.06,74322.5,-1.83,-19.85,-20.39,0,*5C
1507950082.99,46495,10.06,74322.8,-1.81,-19.95,-20.49,0,*59
1507950084.25,46496,10.06,74326.3,-1.83,-20.15,-20.73,0,*53
1507950085.49,46497,10.06,74328.3,-1.85,-19.99,-20.49,0,*53
1507950086.7,46498,10.06,74326.3,-1.81,-19.99,-20.63,0,*50
1507950087.94,46499,10.06,74326.0,-1.81,-19.95,-20.49,0,*55
1507950089.15,46500,10.06,74324.8,-1.81,-19.99,-20.63,0,*50
1507950090.36,46501,10.06,74322.5,-1.81,-19.99,-20.59,0,*58
1507950091.61,46502,10.06,74320.0,-1.83,-19.81,-20.29,0,*57
1507950092.82,46503,10.06,74326.0,-1.85,-19.91,-20.43,0,*5D
1507950094.11,46504,10.06,74324.5,-1.83,-19.85,-20.49,0,*53
1507950095.4,46505,10.06,74324.0,-1.83,-19.85,-20.49,0,*52
1507950096.61,46506,10.06,74326.8,-1.85,-19.99,-20.69,0,*58
1507950097.85,46507,10.06,74328.8,-1.83,-19.99,-20.63,0,*55
1507950099.1,46508,10.06,74330.8,-1.83,-19.85,-20.09,0,*5B
1507950100.34,46509,10.06,74320.3,-1.81,-19.57,-20.25,0,*59
1507950101.6,46510,10.06,74326.8,-1.81,-19.85,-20.49,0,*54
1507950102.85,46511,10.06,74326.0,-1.83,-19.37,-19.95,0,*55
1507950104.13,46512,10.06,74324.5,-1.83,-19.85,-20.49,0,*54
1507950105.37,46513,10.06,74322.3,-1.83,-19.99,-20.63,0,*50
1507950106.62,46514,10.06,74324.3,-1.83,-19.99,-20.63,0,*57
1507950107.86,46515,10.06,74320.8,-1.83,-19.99,-20.59,0,*5F
1507950109.1,46516,10.06,74322.5,-1.83,-19.99,-20.59,0,*5C
1507950110.34,46517,10.06,74326.8,-1.83,-19.95,-20.59,0,*51
1507950111.55,46518,10.06,74326.8,-1.81,-19.99,-20.63,0,*59
1507950112.76,46519,10.06,74328.5,-1.81,-19.99,-20.63,0,*58
1507950113.97,46520,10.06,74326.3,-1.81,-20.09,-20.73,0,*50
1507950115.18,46521,10.06,74326.5,-1.81,-19.95,-20.73,0,*5E
1507950116.42,46522,10.06,74326.0,-1.83,-19.95,-20.59,0,*57
1507950117.63,46523,10.06,74330.5,-1.81,-19.71,-20.29,0,*59
1507950118.89,46524,10.06,74326.5,-1.81,-19.85,-20.49,0,*53
1507950120.12,46525,10.06,74328.5,-1.81,-19.85,-20.59,0,*53
1507950121.37,46526,10.06,74328.5,-1.77,-19.95,-20.39,0,*5E
1507950122.63,46527,10.06,74326.8,-1.83,-19.85,-20.59,0,*53
1507950123.89,46528,10.06,74326.3,-1.77,-19.71,-20.35,0,*56
1507950125.15,46529,10.06,74326.0,-1.81,-19.85,-20.49,0,*5E
1507950126.38,46530,10.06,74326.3,-1.81,-19.85,-20.43,0,*5C
1507950127.61,46531,10.06,74322.3,-1.81,-19.81,-20.43,0,*59
1507950128.82,46532,10.06,74330.8,-1.81,-19.95,-20.59,0,*54
1507950130.04,46533,10.06,74326.0,-1.81,-19.71,-20.25,0,*54
1507950131.27,46534,10.06,74328.5,-1.81,-19.85,-20.63,0,*5A
1507950132.48,46535,10.06,74324.0,-1.81,-19.71,-20.25,0,*52
1507950133.74,46536,10.06,74324.3,-1.77,-19.41,-20.05,0,*59
1507950134.95,46537,10.06,74328.0,-1.81,-19.71,-20.29,0,*5C
1507950136.19,46538,10.06,74326.5,-1.81,-19.57,-20.39,0,*56
1507950137.45,46539,10.06,74328.0,-1.81,-19.81,-20.49,0,*5B
1507950138.68,46540,10.06,74328.5,-1.81,-19.57,-20.29,0,*58
1507950139.94,46541,10.06,74326.3,-1.81,-19.85,-20.49,0,*50
1507950141.18,46542,10.06,74322.8,-1.77,-19.71,-20.29,0,*57
1507950142.48,46543,10.06,74322.3,-1.77,-19.61,-20.35,0,*5A
1507950143.72,46544,10.06,74324.8,-1.77,-19.71,-20.29,0,*51
1507950145.01,46545,10.06,74324.8,-1.77,-19.61,-20.35,0,*5C
1507950146.24,46546,10.06,74320.5,-1.81,-19.85,-20.43,0,*5D
1507950147.5,46547,10.06,74324.3,-1.77,-19.75,-20.35,0,*5B
1507950148.77,46548,10.06,74314.5,-1.77,-19.71,-20.35,0,*50
1507950150.03,46549,10.06,74322.3,-1.77,-19.85,-20.63,0,*59
1507950151.32,46550,10.06,74320.3,-1.77,-19.85,-20.53,0,*52
1507950152.59,46551,10.06,74326.5,-1.77,-19.61,-20.29,0,*54
1507950153.86,46552,10.06,74318.8,-1.77,-19.61,-20.39,0,*56
1507950155.16,46553,10.06,74314.3,-1.77,-19.57,-20.19,0,*50
1507950156.42,46554,10.06,74308.3,-1.77,-19.47,-20.19,0,*56
1507950157.69,46555,10.06,74312.5,-1.77,-19.47,-20.19,0,*57
1507950158.95,46556,10.06,74314.5,-1.77,-19.75,-20.49,0,*50
1507950160.24,46557,10.06,74316.3,-1.77,-19.61,-20.35,0,*5F
1507950161.49,46558,10.06,74320.8,-1.77,-19.71,-20.39,0,*5D
1507950162.76,46559,10.06,74316.0,-1.75,-19.41,-20.19,0,*5F
1507950164.01,46560,10.06,74318.0,-1.73,-19.37,-20.15,0,*5E
1507950165.23,46561,10.06,74318.8,-1.75,-19.37,-20.05,0,*58
1507950166.49,46562,10.06,74318.3,-1.73,-19.41,-20.25,0,*5E
1507950167.73,46563,10.06,74318.8,-1.75,-19.61,-20.29,0,*57
1507950168.96,46564,10.06,74324.3,-1.75,-19.47,-20.15,0,*5B
1507950170.21,46565,10.06,74320.8,-1.75,-19.61,-20.39,0,*50
1507950171.45,46566,10.06,74322.8,-1.73,-19.71,-20.43,0,*59
1507950172.72,46567,10.06,74318.5,-1.75,-19.61,-20.35,0,*5E
1507950173.98,46568,10.06,74316.3,-1.73,-19.57,-20.29,0,*5F
1507950175.24,46569,10.06,74314.8,-1.73,-19.23,-19.99,0,*5C
1507950176.52,46570,10.06,74318.0,-1.73,-19.31,-20.15,0,*59
1507950177.76,46571,10.06,74320.8,-1.73,-19.51,-20.25,0,*5D
1507950179.02,46572,10.06,74316.0,-1.73,-19.31,-19.99,0,*55
1507950180.31,46573,10.06,74322.5,-1.73,-19.31,-20.15,0,*5A
1507950181.55,46574,10.06,74320.0,-1.73,-19.17,-19.95,0,*5B
1507950182.82,46575,10.06,74322.0,-1.73,-19.41,-20.15,0,*5B
1507950184.06,46576,10.06,74320.0,-1.73,-19.51,-20.25,0,*5A
1507950185.32,46577,10.06,74320.5,-1.71,-19.41,-20.15,0,*5B
1507950186.57,46578,10.06,74320.0,-1.69,-19.03,-19.81,0,*5C
1507950187.81,46579,10.06,74320.3,-1.69,-18.99,-19.95,0,*5A
1507950189.08,46580,10.06,74324.8,-1.71,-19.31,-20.15,0,*54
1507950190.34,46581,10.06,74324.5,-1.71,-19.57,-20.35,0,*57
1507950191.63,46582,10.06,74320.3,-1.69,-19.31,-20.19,0,*53
1507950192.9,46583,10.06,74322.3,-1.69,-19.61,-20.39,0,*55
1507950194.14,46584,10.06,74320.3,-1.69,-19.47,-20.29,0,*57
1507950195.41,46585,10.06,74330.5,-1.69,-19.61,-20.39,0,*53
1507950196.68,46586,10.06,74326.5,-1.69,-19.65,-20.43,0,*59
1507950197.95,46587,10.06,74326.0,-1.69,-19.27,-20.05,0,*5C
1507950199.19,46588,10.06,74328.8,-1.69,-19.17,-20.05,0,*50
1507950200.44,46589,10.06,74328.3,-1.67,-19.61,-20.39,0,*51
1507950201.7,46590,10.06,74320.5,-1.65,-19.23,-20.05,0,*52
1507950202.94,46591,10.06,74324.3,-1.67,-19.31,-20.29,0,*5C
1507950204.16,46592,10.06,74322.8,-1.67,-19.13,-20.09,0,*5D
1507950205.38,46593,10.06,74324.8,-1.67,-19.51,-20.29,0,*58
1507950206.62,46594,10.06,74326.8,-1.65,-19.47,-20.25,0,*56
1507950207.83,46595,10.06,74324.0,-1.67,-19.47,-20.29,0,*59
1507950209.04,46596,10.06,74326.3,-1.67,-19.47,-20.25,0,*56
1507950210.3,46597,10.06,74324.8,-1.65,-19.47,-20.35,0,*54
1507950211.52,46598,10.06,74328.3,-1.67,-19.51,-20.43,0,*5F
1507950212.74,46599,10.06,74324.5,-1.67,-19.37,-20.25,0,*5E
1507950214.01,46600,10.06,74326.3,-1.65,-19.41,-20.39,0,*53
1507950215.3,46601,10.06,74322.3,-1.65,-19.57,-20.35,0,*59
1507950216.52,46602,10.06,74324.0,-1.67,-19.51,-20.43,0,*5F
1507950217.73,46603,10.06,74324.5,-1.67,-19.51,-20.43,0,*5E
1507950219.01,46604,10.06,74324.8,-1.63,-19.61,-20.49,0,*54
1507950220.25,46605,10.06,74324.8,-1.65,-19.47,-20.25,0,*5D
1507950221.51,46606,10.06,74322.3,-1.65,-19.61,-20.69,0,*52
1507950222.79,46607,10.06,74320.5,-1.65,-19.41,-20.35,0,*58
1507950224.08,46608,10.06,74320.0,-1.65,-19.31,-20.19,0,*5E
1507950225.3,46609,10.06,74320.8,-1.67,-19.51,-20.43,0,*54
1507950226.6,46610,10.06,74324.8,-1.65,-19.57,-20.53,0,*59
1507950227.84,46611,10.06,74322.0,-1.67,-19.61,-20.69,0,*56
1507950229.13,46612,10.06,74322.3,-1.65,-19.41,-20.49,0,*57
1507950230.39,46613,10.06,74320.5,-1.65,-19.47,-20.49,0,*50
1507950231.64,46614,10.06,74320.0,-1.67,-19.31,-20.39,0,*53
1507950232.93,46615,10.06,74322.5,-1.65,-19.31,-20.35,0,*5C
1507950234.2,46616,10.06,74322.5,-1.65,-19.31,-20.39,0,*53
1507950235.46,46617,10.06,74320.0,-1.65,-19.47,-20.35,0,*5F
1507950236.68,46618,10.06,74318.5,-1.67,-19.37,-20.43,0,*54
1507950237.95,46619,10.06,74320.8,-1.65,-19.47,-20.53,0,*51
1507950239.23,46620,10.06,74320.8,-1.65,-19.41,-20.35,0,*5D
1507950240.47,46621,10.06,74324.8,-1.67,-19.65,-20.69,0,*51
1507950241.71,46622,10.06,74322.0,-1.67,-19.51,-20.53,0,*5C
1507950243.0,46623,10.06,74320.3,-1.65,-19.31,-20.35,0,*59
1507950244.24,46624,10.06,74322.3,-1.63,-19.41,-20.43,0,*5E
1507950245.48,46625,10.06,74320.8,-1.63,-19.57,-20.59,0,*53
1507950246.77,46626,10.06,74322.5,-1.65,-19.61,-20.79,0,*51
1507950248.04,46627,10.06,74322.8,-1.65,-19.57,-20.63,0,*5E
1507950249.31,46628,10.06,74324.0,-1.63,-19.41,-20.49,0,*58
1507950250.57,46629,10.06,74324.0,-1.65,-19.07,-20.19,0,*58
1507950251.81,46630,10.06,74324.3,-1.65,-19.47,-20.63,0,*59
1507950253.1,46631,10.06,74320.0,-1.65,-19.61,-20.53,0,*5F
1507950254.37,46632,10.06,74320.0,-1.65,-19.57,-20.69,0,*50
1507950255.61,46633,10.06,74318.3,-1.65,-19.47,-20.63,0,*5A
1507950256.85,46634,10.06,74326.8,-1.65,-19.71,-20.93,0,*57
1507950258.08,46635,10.06,74318.3,-1.67,-19.91,-21.03,0,*52
1507950259.32,46636,10.06,74310.5,-1.67,-19.91,-21.03,0,*51
1507950260.61,46637,10.06,74316.0,-1.65,-19.41,-20.53,0,*5B
1507950261.87,46638,10.06,74312.3,-1.65,-19.47,-20.49,0,*59
1507950263.14,46639,10.06,74320.0,-1.65,-19.61,-20.63,0,*54
1507950264.43,46640,10.06,74318.5,-1.65,-19.57,-20.53,0,*5C
1507950265.67,46641,10.06,74316.8,-1.65,-19.47,-20.63,0,*5F
1507950266.94,46642,10.06,74322.0,-1.65,-19.61,-20.63,0,*58
1507950268.21,46643,10.06,74324.5,-1.65,-19.61,-20.63,0,*59
1507950269.48,46644,10.06,74322.5,-1.65,-19.57,-20.69,0,*51
1507950270.74,46645,10.06,74322.3,-1.65,-19.57,-20.69,0,*50
1507950271.98,46646,10.06,74326.0,-1.67,-19.65,-20.73,0,*5B
1507950273.25,46647,10.06,74324.5,-1.65,-19.57,-20.69,0,*52
1507950274.51,46648,10.06,74328.0,-1.65,-19.57,-20.69,0,*5D
1507950275.76,46649,10.06,74320.0,-1.63,-19.57,-20.73,0,*51
1507950277.04,46650,10.06,74318.8,-1.65,-19.61,-20.79,0,*50
1507950278.3,46651,10.06,74316.8,-1.65,-19.75,-20.83,0,*51
1507950279.55,46652,10.06,74322.5,-1.63,-19.65,-20.89,0,*5F
1507950280.81,46653,10.06,74320.8,-1.63,-19.57,-20.79,0,*50
1507950282.1,46654,10.06,74324.0,-1.65,-19.57,-20.79,0,*51
1507950283.39,46655,10.06,74324.5,-1.65,-19.61,-20.99,0,*5B
1507950284.63,46656,10.06,74326.0,-1.65,-19.71,-20.93,0,*53
1507950285.9,46657,10.06,74330.5,-1.65,-19.71,-20.83,0,*53
1507950287.16,46658,10.06,74326.3,-1.65,-19.61,-20.93,0,*5C
1507950288.43,46659,10.06,74322.0,-1.65,-19.47,-20.53,0,*55
1507950289.67,46660,10.06,74320.5,-1.65,-19.07,-20.25,0,*5A
1507950290.9,46661,10.06,74318.8,-1.65,-19.47,-20.69,0,*57
1507950292.14,46662,10.06,74318.0,-1.67,-19.51,-20.83,0,*55
1507950293.38,46663,10.06,74322.8,-1.61,-19.51,-20.93,0,*53
1507950294.65,46664,10.06,74324.5,-1.65,-19.61,-20.93,0,*53
1507950295.92,46665,10.06,74322.0,-1.65,-19.61,-20.93,0,*52
1507950297.22,46666,10.06,74320.5,-1.65,-19.27,-20.49,0,*54
1507950298.47,46667,10.06,74318.5,-1.65,-19.13,-20.63,0,*5A
1507950299.73,46668,10.06,74322.3,-1.65,-19.31,-20.69,0,*5F
1507950301.01,46669,10.06,74322.0,-1.65,-19.41,-20.83,0,*5D
1507950302.27,46670,10.06,74326.3,-1.65,-19.47,-20.83,0,*53
1507950303.5,46671,10.06,74322.5,-1.63,-19.37,-20.89,0,*59
1507950304.74,46672,10.06,74320.8,-1.63,-19.41,-20.89,0,*5B
1507950306.01,46673,10.06,74322.5,-1.63,-19.27,-20.79,0,*55
1507950307.3,46674,10.06,74324.3,-1.61,-19.27,-20.89,0,*5F
1507950308.56,46675,10.06,74322.5,-1.65,-19.41,-20.93,0,*51
1507950309.82,46676,10.06,74324.3,-1.65,-19.31,-20.93,0,*55
1507950311.09,46677,10.06,74324.5,-1.67,-19.31,-20.99,0,*5C
1507950312.35,46678,10.06,74320.3,-1.65,-19.41,-20.93,0,*5C
1507950313.65,46679,10.06,74326.8,-1.65,-19.27,-20.79,0,*59
1507950314.93,46680,10.06,74326.5,-1.65,-19.41,-20.99,0,*51
1507950316.19,46681,10.06,74326.8,-1.65,-19.41,-20.93,0,*5A
1507950317.49,46682,10.06,74324.8,-1.65,-19.27,-20.83,0,*58
1507950318.75,46683,10.06,74326.3,-1.65,-19.41,-20.93,0,*58
1507950320.02,46684,10.06,74324.3,-1.67,-19.31,-20.99,0,*50
1507950321.26,46685,10.06,74322.8,-1.67,-19.37,-20.99,0,*57
1507950322.5,46686,10.06,74324.5,-1.67,-19.37,-21.03,0,*56
1507950323.76,46687,10.06,74326.8,-1.65,-19.41,-20.93,0,*5C
1507950325.02,46688,10.06,74324.5,-1.65,-19.41,-20.93,0,*53
1507950326.29,46689,10.06,74328.8,-1.61,-19.41,-20.93,0,*56
1507950327.55,46690,10.06,74328.5,-1.65,-19.31,-20.93,0,*5D
1507950328.83,46691,10.06,74326.0,-1.65,-19.23,-20.89,0,*54
1507950330.07,46692,10.06,74326.8,-1.65,-18.99,-20.63,0,*53
1507950331.33,46693,10.06,74320.0,-1.65,-19.13,-20.79,0,*5A
1507950332.59,46694,10.06,74326.0,-1.65,-19.07,-20.79,0,*58
1507950333.85,46695,10.06,74322.3,-1.65,-19.23,-20.93,0,*5B
1507950335.1,46696,10.06,74304.0,-1.63,-19.27,-20.93,0,*5A
1507950336.37,46697,10.06,74310.0,-1.65,-19.13,-20.79,0,*5E
1507950337.65,46698,10.06,74316.8,-1.65,-19.23,-20.79,0,*52
1507950338.9,46699,10.06,74328.3,-1.65,-19.13,-20.63,0,*5B
1507950340.19,46700,10.06,74312.0,-1.65,-19.23,-20.79,0,*52
1507950341.46,46701,10.06,74318.8,-1.63,-19.27,-20.79,0,*51
1507950342.68,46702,10.06,74322.5,-1.63,-19.17,-20.73,0,*5B
1507950343.94,46703,10.06,74322.0,-1.61,-19.23,-20.73,0,*5F
1507950345.19,46704,10.06,74322.0,-1.63,-19.07,-20.49,0,*55
1507950346.46,46705,10.06,74322.0,-1.63,-19.27,-20.79,0,*55
1507950347.68,46706,10.06,74316.8,-1.63,-19.17,-20.73,0,*5F
1507950348.91,46707,10.06,74316.5,-1.63,-18.73,-20.35,0,*5F
1507950350.16,46708,10.06,74322.8,-1.61,-19.17,-20.63,0,*52
1507950351.4,46709,10.06,74324.0,-1.63,-19.17,-20.79,0,*5A
1507950352.7,46710,10.06,74322.3,-1.61,-19.27,-20.79,0,*53
1507950353.94,46711,10.06,74326.0,-1.61,-19.07,-20.73,0,*5A
1507950355.19,46712,10.06,74326.0,-1.61,-19.37,-20.89,0,*5F
1507950356.42,46713,10.06,74326.5,-1.63,-19.37,-20.89,0,*5C
1507950357.69,46714,10.06,74326.3,-1.61,-19.41,-20.89,0,*58
1507950358.94,46715,10.06,74328.0,-1.61,-19.37,-20.89,0,*58
1507950360.16,46716,10.06,74326.5,-1.63,-19.37,-20.89,0,*59
1507950361.39,46717,10.06,74324.8,-1.63,-19.51,-20.89,0,*58
1507950362.65,46718,10.06,74324.0,-1.61,-19.51,-21.03,0,*56
1507950363.88,46719,10.06,74324.5,-1.63,-19.37,-20.89,0,*56
1507950365.16,46720,10.06,74330.5,-1.61,-19.41,-20.79,0,*50
1507950366.41,46721,10.06,74322.3,-1.63,-19.51,-21.03,0,*5E
1507950367.65,46722,10.06,74322.0,-1.59,-19.37,-20.83,0,*5D
1507950368.88,46723,10.06,74316.0,-1.63,-19.37,-20.89,0,*5F
1507950370.12,46724,10.06,74318.5,-1.63,-19.41,-20.89,0,*59
1507950371.39,46725,10.06,74324.3,-1.61,-19.41,-20.89,0,*5A
1507950372.64,46726,10.06,74322.3,-1.59,-19.31,-20.73,0,*50
1507950373.91,46727,10.06,74320.0,-1.59,-19.31,-20.83,0,*5E
1507950375.19,46728,10.06,74328.5,-1.61,-19.41,-20.79,0,*58
1507950376.46,46729,10.06,74322.8,-1.61,-19.41,-20.93,0,*5D
1507950377.7,46730,10.06,74322.5,-1.63,-19.57,-20.93,0,*50
1507950378.95,46731,10.06,74328.0,-1.59,-19.37,-20.83,0,*5F
1507950380.17,46732,10.06,74324.8,-1.59,-19.47,-20.89,0,*51
1507950381.41,46733,10.06,74328.8,-1.59,-19.51,-21.03,0,*54
1507950382.64,46734,10.06,74330.5,-1.63,-19.51,-20.89,0,*59
1507950383.93,46735,10.06,74328.0,-1.61,-19.57,-21.03,0,*5F
1507950385.2,46736,10.06,74332.3,-1.61,-19.57,-20.93,0,*54
1507950386.49,46737,10.06,74334.5,-1.61,-19.57,-21.03,0,*5D
1507950387.74,46738,10.06,74328.5,-1.61,-19.37,-20.93,0,*5C
1507950389.0,46739,10.06,74336.8,-1.61,-19.57,-21.09,0,*59
1507950390.27,46740,10.06,74334.5,-1.61,-19.41,-20.93,0,*52
1507950391.5,46741,10.06,74332.0,-1.63,-19.57,-21.09,0,*54
1507950392.75,46742,10.06,74324.0,-1.61,-19.51,-20.93,0,*51
1507950393.99,46743,10.06,74328.5,-1.59,-19.23,-20.69,0,*5B
1507950395.23,46744,10.06,74334.3,-1.63,-19.23,-20.73,0,*5E
1507950396.47,46745,10.06,74334.5,-1.63,-19.57,-21.09,0,*50
1507950397.74,46746,10.06,74328.0,-1.61,-19.41,-20.89,0,*5F
1507950399.02,46747,10.06,74330.3,-1.61,-19.27,-20.73,0,*5B
1507950400.24,46748,10.06,74328.8,-1.59,-19.17,-20.69,0,*57
1507950401.46,46749,10.06,74326.3,-1.59,-19.03,-20.59,0,*50
1507950402.67,46750,10.06,74326.3,-1.59,-19.17,-20.69,0,*5E
1507950403.89,46751,10.06,74326.5,-1.55,-18.99,-20.43,0,*5C
1507950405.13,46752,10.06,74338.3,-1.55,-19.23,-20.73,0,*5C
1507950406.35,46753,10.06,74328.0,-1.55,-18.69,-20.25,0,*51
1507950407.61,46754,10.06,74324.5,-1.53,-18.35,-19.91,0,*5C
1507950408.85,46755,10.06,74328.3,-1.53,-18.49,-19.99,0,*5E
1507950410.08,46756,10.06,74330.0,-1.51,-18.99,-20.53,0,*5E
1507950411.33,46757,10.06,74332.5,-1.53,-19.13,-20.63,0,*5D
1507950412.58,46758,10.06,74328.5,-1.53,-19.13,-20.63,0,*52
1507950413.82,46759,10.06,74330.3,-1.53,-19.13,-20.63,0,*53
1507950415.12,46760,10.06,74330.3,-1.53,-19.27,-20.79,0,*55
1507950416.38,46761,10.06,74324.3,-1.53,-19.41,-20.93,0,*50
1507950417.67,46762,10.06,74330.3,-1.53,-19.31,-20.83,0,*55
1507950418.96,46763,10.06,74326.8,-1.53,-19.31,-20.99,0,*5F
1507950420.24,46764,10.06,74324.3,-1.53,-19.41,-20.83,0,*54
1507950421.46,46765,10.06,74326.8,-1.55,-19.47,-21.17,0,*59
1507950422.7,46766,10.06,74326.3,-1.55,-19.37,-21.03,0,*58
1507950423.95,46767,10.06,74318.5,-1.53,-19.41,-21.13,0,*5F
1507950425.22,46768,10.06,74322.8,-1.53,-19.31,-20.93,0,*5E
1507950426.49,46769,10.06,74318.0,-1.53,-19.31,-20.93,0,*5F
1507950427.69,46770,10.06,74316.3,-1.51,-19.47,-21.09,0,*56
1507950428.92,46771,10.06,74324.8,-1.53,-19.47,-21.13,0,*5E
1507950430.18,46772,10.06,74332.0,-1.53,-19.41,-20.93,0,*52
1507950431.47,46773,10.06,74308.0,-1.53,-19.41,-20.99,0,*59
1507950432.76,46774,10.06,74320.5,-1.53,-19.31,-20.83,0,*52
1507950434.02,46775,10.06,74324.0,-1.53,-19.17,-20.79,0,*52
1507950435.31,46776,10.06,74330.5,-1.53,-19.41,-20.99,0,*5C
1507950436.52,46777,10.06,74314.0,-1.51,-19.13,-20.69,0,*57
1507950437.73,46778,10.06,74314.3,-1.51,-19.17,-20.69,0,*5C
1507950438.95,46779,10.06,74316.5,-1.51,-19.17,-20.69,0,*5D
1507950440.15,46780,10.06,74318.0,-1.51,-19.07,-20.69,0,*5A
1507950441.4,46781,10.06,74316.3,-1.49,-19.13,-20.73,0,*5C
1507950442.64,46782,10.06,74318.8,-1.51,-19.17,-20.83,0,*5D
1507950443.87,46783,10.06,74320.0,-1.51,-19.07,-20.79,0,*58
1507950445.1,46784,10.06,74320.8,-1.49,-18.79,-20.43,0,*57
1507950446.34,46785,10.06,74320.5,-1.49,-18.79,-20.43,0,*56
1507950447.57,46786,10.06,74326.5,-1.49,-18.73,-20.29,0,*53
1507950448.83,46787,10.06,74324.0,-1.49,-18.89,-20.59,0,*50
1507950450.11,46788,10.06,74328.3,-1.49,-19.23,-20.79,0,*5C
1507950451.39,46789,10.06,74330.0,-1.49,-19.23,-20.79,0,*5D
1507950452.66,46790,10.06,74326.3,-1.47,-19.13,-20.79,0,*58
1507950453.94,46791,10.06,74330.3,-1.49,-19.27,-20.89,0,*5F
1507950455.21,46792,10.06,74322.5,-1.49,-19.23,-20.89,0,*58
1507950456.47,46793,10.06,74320.5,-1.47,-18.73,-20.49,0,*5F
1507950457.73,46794,10.06,74322.5,-1.47,-19.03,-20.79,0,*5D
1507950459.0,46795,10.06,74322.3,-1.47,-18.93,-20.73,0,*5E
1507950460.27,46796,10.06,74320.0,-1.47,-18.93,-20.73,0,*5D
1507950461.5,46797,10.06,74322.8,-1.47,-19.03,-20.73,0,*54
1507950462.74,46798,10.06,74324.3,-1.47,-19.03,-20.73,0,*5B
1507950464.0,46799,10.06,74318.8,-1.47,-18.89,-20.73,0,*59
1507950465.22,46800,10.06,74326.8,-1.45,-19.07,-20.89,0,*56
1507950466.44,46801,10.06,74320.5,-1.45,-18.83,-20.59,0,*57
1507950467.66,46802,10.06,74320.8,-1.45,-19.03,-20.89,0,*50
1507950468.9,46803,10.06,74320.3,-1.45,-18.89,-20.69,0,*5C
1507950470.13,46804,10.06,74320.0,-1.45,-19.03,-20.83,0,*5C
1507950471.35,46805,10.06,74322.0,-1.45,-19.03,-20.73,0,*52
1507950472.57,46806,10.06,74322.8,-1.45,-19.17,-20.89,0,*51
1507950473.79,46807,10.06,74330.8,-1.45,-19.03,-20.73,0,*50
1507950475.02,46808,10.06,74330.0,-1.45,-19.03,-20.83,0,*50
1507950476.29,46809,10.06,74320.8,-1.43,-19.13,-21.03,0,*5F
1507950477.54,46810,10.06,74322.5,-1.45,-19.17,-20.99,0,*57
1507950478.75,46811,10.06,74326.5,-1.45,-19.03,-20.73,0,*57
1507950480.02,46812,10.06,74326.3,-1.43,-18.79,-20.53,0,*5C
1507950481.24,46813,10.06,74326.8,-1.45,-18.83,-20.59,0,*54
1507950482.45,46814,10.06,74330.3,-1.45,-18.73,-20.59,0,*5C
1507950483.69,46815,10.06,74328.8,-1.43,-18.83,-20.69,0,*57
1507950484.93,46816,10.06,74326.0,-1.41,-18.65,-20.49,0,*5C
1507950486.17,46817,10.06,74328.3,-1.43,-18.99,-20.63,0,*54
1507950487.41,46818,10.06,74328.3,-1.43,-18.99,-20.69,0,*51
1507950488.62,46819,10.06,74326.3,-1.41,-19.03,-20.93,0,*55
1507950489.85,46820,10.06,74328.5,-1.41,-18.65,-20.35,0,*52
1507950491.08,46821,10.06,74320.5,-1.41,-18.65,-20.53,0,*53
1507950492.32,46822,10.06,74314.0,-1.41,-18.69,-20.53,0,*5C
1507950493.55,46823,10.06,74326.5,-1.41,-18.55,-20.63,0,*51
1507950494.8,46824,10.06,74352.8,-1.39,-18.99,-20.89,0,*5D
1507950496.04,46825,10.06,74310.5,-1.41,-19.27,-21.13,0,*55
1507950497.28,46826,10.06,74312.0,-1.39,-18.73,-20.43,0,*5D
1507950498.53,46827,10.06,74312.3,-1.39,-18.49,-20.19,0,*5A
1507950499.79,46828,10.06,74318.3,-1.39,-18.17,-19.85,0,*51